KLM30N ENGM-EHAM

Flight info

Callsign KLM30N
Flight time 1h 30m
Altitude 36000
Route VIPPA DCT KUGAL DCT EEL DCT BLUFA
Aircraft B738/M-SDE2E3FGHIRWXY/LB1

Departure

Time 2026-05-06 21:52
Airport Oslo-Gardermoen International Airport (ENGM)

Arrival

Time 2026-05-06 23:22
Airport Amsterdam Airport Schiphol (EHAM)
Time Latitude Longitude Altitude Speed Heading
2026-05-06 21:10 60.19448 11.10237 684 ft 0 kts 196°
2026-05-06 21:40 60.19465 11.10247 684 ft 4 kts 196°
2026-05-06 21:40 60.19490 11.10261 682 ft 2 kts 196°
2026-05-06 21:41 60.19510 11.10276 679 ft 4 kts 219°
2026-05-06 21:41 60.19523 11.10309 678 ft 4 kts 241°
2026-05-06 21:41 60.19536 11.10357 681 ft 4 kts 241°
2026-05-06 21:41 60.19544 11.10383 680 ft 1 kts 241°
2026-05-06 21:44 60.19545 11.10374 680 ft 1 kts 284°
2026-05-06 21:44 60.19561 11.10381 679 ft 6 kts 18°
2026-05-06 21:44 60.19628 11.10424 683 ft 13 kts 17°
2026-05-06 21:44 60.19713 11.10474 683 ft 13 kts 16°
2026-05-06 21:45 60.19795 11.10523 680 ft 12 kts 16°
2026-05-06 21:45 60.19878 11.10549 683 ft 12 kts 338°
2026-05-06 21:45 60.19916 11.10402 679 ft 14 kts 286°
2026-05-06 21:45 60.19949 11.10167 684 ft 20 kts 286°
2026-05-06 21:46 60.19986 11.09907 679 ft 19 kts 286°
2026-05-06 21:46 60.20022 11.09657 682 ft 18 kts 286°
2026-05-06 21:46 60.20057 11.09413 677 ft 18 kts 286°
2026-05-06 21:46 60.20090 11.09179 679 ft 17 kts 286°
2026-05-06 21:47 60.20121 11.08961 678 ft 14 kts 285°
2026-05-06 21:47 60.20070 11.08842 678 ft 14 kts 197°
2026-05-06 21:47 60.19950 11.08774 676 ft 22 kts 196°
2026-05-06 21:47 60.19799 11.08686 678 ft 22 kts 196°
2026-05-06 21:48 60.19652 11.08602 677 ft 22 kts 195°
2026-05-06 21:48 60.19509 11.08518 676 ft 21 kts 196°
2026-05-06 21:48 60.19416 11.08464 675 ft 21 kts 195°
2026-05-06 21:48 60.19280 11.08386 674 ft 20 kts 196°
2026-05-06 21:49 60.19148 11.08309 672 ft 19 kts 195°
2026-05-06 21:49 60.19020 11.08236 672 ft 19 kts 196°
2026-05-06 21:49 60.18896 11.08164 671 ft 18 kts 195°
2026-05-06 21:49 60.18776 11.08095 670 ft 18 kts 196°
2026-05-06 21:50 60.18661 11.08028 670 ft 17 kts 196°
2026-05-06 21:50 60.18554 11.07962 669 ft 14 kts 211°
2026-05-06 21:50 60.18552 11.07774 664 ft 15 kts 285°
2026-05-06 21:50 60.18579 11.07583 665 ft 13 kts 286°
2026-05-06 21:51 60.18612 11.07451 664 ft 8 kts 338°
2026-05-06 21:51 60.18657 11.07466 665 ft 13 kts 15°
2026-05-06 21:51 60.18980 11.07651 668 ft 84 kts 16°
2026-05-06 21:51 60.19757 11.08099 673 ft 146 kts 16°
2026-05-06 21:52 60.20885 11.08746 889 ft 180 kts 16°
2026-05-06 21:52 60.22070 11.09509 1808 ft 179 kts 14°
2026-05-06 21:52 60.23266 11.10173 2692 ft 180 kts 13°
2026-05-06 21:52 60.24574 11.10854 3028 ft 208 kts 13°
2026-05-06 21:53 60.26055 11.11373 3420 ft 222 kts 359°
2026-05-06 21:53 60.27523 11.10540 4006 ft 228 kts 324°
2026-05-06 21:53 60.28531 11.08117 4795 ft 229 kts 293°
2026-05-06 21:53 60.29033 11.05069 5621 ft 230 kts 285°
2026-05-06 21:54 60.29456 11.01953 6443 ft 232 kts 284°
2026-05-06 21:54 60.29883 10.98792 7235 ft 233 kts 284°
2026-05-06 21:54 60.30317 10.95643 8069 ft 233 kts 283°
2026-05-06 21:54 60.30710 10.92474 8870 ft 233 kts 272°
2026-05-06 21:55 60.30340 10.89374 9637 ft 231 kts 234°
2026-05-06 21:55 60.29102 10.87203 10104 ft 250 kts 209°
2026-05-06 21:55 60.27393 10.85891 10338 ft 276 kts 199°
2026-05-06 21:55 60.25448 10.84874 10538 ft 301 kts 196°
2026-05-06 21:56 60.23356 10.83892 10729 ft 324 kts 196°
2026-05-06 21:56 60.21096 10.82850 11072 ft 340 kts 196°
2026-05-06 21:56 60.18772 10.81774 11740 ft 345 kts 197°
2026-05-06 21:56 60.16428 10.80676 12554 ft 346 kts 198°
2026-05-06 21:57 60.14079 10.79561 13350 ft 348 kts 198°
2026-05-06 21:57 60.11715 10.78425 14046 ft 351 kts 199°
2026-05-06 21:57 60.09329 10.77277 14714 ft 354 kts 199°
2026-05-06 21:57 60.06924 10.76117 15392 ft 357 kts 199°
2026-05-06 21:58 60.04496 10.74964 16030 ft 360 kts 199°
2026-05-06 21:58 60.02053 10.73763 16644 ft 363 kts 200°
2026-05-06 21:58 59.99574 10.72539 17137 ft 370 kts 200°
2026-05-06 21:58 59.97062 10.71310 17756 ft 373 kts 200°
2026-05-06 21:59 59.94539 10.70085 18398 ft 375 kts 200°
2026-05-06 21:59 59.91994 10.68851 18959 ft 377 kts 200°
2026-05-06 21:59 59.89436 10.67615 19514 ft 379 kts 200°
2026-05-06 21:59 59.86867 10.66374 20072 ft 381 kts 200°
2026-05-06 22:00 59.84283 10.65127 20623 ft 383 kts 200°
2026-05-06 22:00 59.81679 10.63871 21161 ft 386 kts 200°
2026-05-06 22:00 59.79062 10.62613 21704 ft 388 kts 200°
2026-05-06 22:00 59.76433 10.61351 22226 ft 390 kts 200°
2026-05-06 22:01 59.73793 10.60082 22655 ft 393 kts 200°
2026-05-06 22:01 59.71114 10.58796 23022 ft 399 kts 200°
2026-05-06 22:01 59.68408 10.57503 23516 ft 400 kts 200°
2026-05-06 22:01 59.65699 10.56214 23976 ft 401 kts 200°
2026-05-06 22:02 59.63014 10.54937 24407 ft 402 kts 200°
2026-05-06 22:02 59.60286 10.53637 24820 ft 403 kts 200°
2026-05-06 22:02 59.57553 10.52335 25210 ft 405 kts 200°
2026-05-06 22:02 59.54806 10.51033 25601 ft 406 kts 200°
2026-05-06 22:03 59.52045 10.49731 25993 ft 408 kts 200°
2026-05-06 22:03 59.49275 10.48425 26364 ft 409 kts 200°
2026-05-06 22:03 59.46511 10.47122 26667 ft 410 kts 200°
2026-05-06 22:03 59.43747 10.45819 26853 ft 416 kts 200°
2026-05-06 22:04 59.40888 10.44473 27127 ft 419 kts 200°
2026-05-06 22:04 59.38054 10.43143 27513 ft 419 kts 200°
2026-05-06 22:04 59.35247 10.41831 27891 ft 420 kts 200°
2026-05-06 22:04 59.32407 10.40504 28209 ft 421 kts 200°
2026-05-06 22:05 59.29551 10.39171 28566 ft 423 kts 200°
2026-05-06 22:05 59.26688 10.37837 28951 ft 422 kts 200°
2026-05-06 22:05 59.23844 10.36518 29462 ft 419 kts 200°
2026-05-06 22:05 59.21020 10.35210 29972 ft 415 kts 200°
2026-05-06 22:06 59.18214 10.33911 30290 ft 415 kts 200°
2026-05-06 22:06 59.15394 10.32601 30371 ft 420 kts 200°
2026-05-06 22:06 59.12536 10.31275 30560 ft 422 kts 199°
2026-05-06 22:06 59.09686 10.29961 30901 ft 420 kts 199°
2026-05-06 22:07 59.06854 10.28659 31279 ft 418 kts 199°
2026-05-06 22:07 59.04019 10.27356 31563 ft 418 kts 199°
2026-05-06 22:07 59.01183 10.26052 31805 ft 419 kts 199°
2026-05-06 22:07 58.98344 10.24750 32087 ft 419 kts 199°
2026-05-06 22:08 58.95514 10.23455 32404 ft 418 kts 199°
2026-05-06 22:08 58.92719 10.21914 32677 ft 414 kts 205°
2026-05-06 22:08 58.90027 10.19973 32871 ft 414 kts 206°
2026-05-06 22:08 58.87335 10.17946 33067 ft 415 kts 206°
2026-05-06 22:09 58.84649 10.15910 33371 ft 414 kts 206°
2026-05-06 22:09 58.81964 10.13883 33652 ft 414 kts 206°
2026-05-06 22:09 58.79277 10.11870 33909 ft 414 kts 206°
2026-05-06 22:09 58.76624 10.09901 34140 ft 414 kts 206°
2026-05-06 22:10 58.73895 10.07888 34317 ft 415 kts 206°
2026-05-06 22:10 58.71227 10.05930 34472 ft 417 kts 206°
2026-05-06 22:10 58.68518 10.03950 34661 ft 417 kts 206°
2026-05-06 22:10 58.65804 10.01972 34848 ft 417 kts 205°
2026-05-06 22:11 58.63089 9.99997 34966 ft 419 kts 205°
2026-05-06 22:11 58.60359 9.98013 35111 ft 420 kts 205°
2026-05-06 22:11 58.57623 9.96029 35291 ft 420 kts 205°
2026-05-06 22:11 58.54884 9.94047 35473 ft 421 kts 205°
2026-05-06 22:12 58.52145 9.92068 35647 ft 421 kts 205°
2026-05-06 22:12 58.49400 9.90087 35798 ft 422 kts 205°
2026-05-06 22:12 58.46654 9.88109 35951 ft 423 kts 205°
2026-05-06 22:12 58.43893 9.86123 35965 ft 425 kts 205°
2026-05-06 22:13 58.38353 9.82150 35978 ft 424 kts 205°
2026-05-06 22:13 58.32849 9.78218 35978 ft 420 kts 205°
2026-05-06 22:14 58.27422 9.74352 35982 ft 418 kts 205°
2026-05-06 22:14 58.21980 9.70486 35983 ft 417 kts 205°
2026-05-06 22:15 58.16550 9.66641 35985 ft 416 kts 205°
2026-05-06 22:15 58.11115 9.62804 35951 ft 417 kts 204°
2026-05-06 22:16 58.05666 9.58971 35976 ft 419 kts 204°
2026-05-06 22:16 58.00195 9.55134 35990 ft 420 kts 204°
2026-05-06 22:17 57.94691 9.51288 35990 ft 423 kts 204°
2026-05-06 22:17 57.89164 9.47442 35991 ft 424 kts 204°
2026-05-06 22:18 57.83623 9.43594 35968 ft 426 kts 204°
2026-05-06 22:18 57.78095 9.39769 35984 ft 426 kts 204°
2026-05-06 22:19 57.72527 9.35929 35991 ft 427 kts 204°
2026-05-06 22:19 57.66946 9.32094 35993 ft 427 kts 204°
2026-05-06 22:20 57.61370 9.28274 35993 ft 426 kts 204°
2026-05-06 22:20 57.55806 9.24475 35987 ft 425 kts 204°
2026-05-06 22:21 57.50261 9.20701 35987 ft 424 kts 204°
2026-05-06 22:21 57.44718 9.16940 35997 ft 423 kts 204°
2026-05-06 22:22 57.39179 9.13194 35996 ft 423 kts 204°
2026-05-06 22:22 57.33690 9.09494 35997 ft 422 kts 204°
2026-05-06 22:23 57.28134 9.05761 35991 ft 422 kts 204°
2026-05-06 22:23 57.22618 9.02066 35997 ft 422 kts 204°
2026-05-06 22:24 57.17103 8.98383 35998 ft 422 kts 204°
2026-05-06 22:24 57.11577 8.94705 36000 ft 423 kts 204°
2026-05-06 22:25 57.06079 8.91058 35973 ft 423 kts 203°
2026-05-06 22:25 57.00538 8.87393 35993 ft 423 kts 203°
2026-05-06 22:26 56.94989 8.83736 36024 ft 424 kts 203°
2026-05-06 22:26 56.89426 8.80082 36010 ft 425 kts 203°
2026-05-06 22:27 56.83846 8.76425 36010 ft 426 kts 203°
2026-05-06 22:27 56.78254 8.72772 35996 ft 427 kts 203°
2026-05-06 22:28 56.72652 8.69126 36012 ft 428 kts 203°
2026-05-06 22:28 56.67044 8.65487 36016 ft 428 kts 203°
2026-05-06 22:29 56.61433 8.61858 36012 ft 428 kts 203°
2026-05-06 22:29 56.55822 8.58241 36013 ft 428 kts 203°
2026-05-06 22:30 56.50218 8.54639 36014 ft 427 kts 203°
2026-05-06 22:30 56.44618 8.51051 36023 ft 427 kts 203°
2026-05-06 22:31 56.39058 8.47499 36016 ft 426 kts 203°
2026-05-06 22:31 56.33464 8.43937 36020 ft 426 kts 203°
2026-05-06 22:32 56.27876 8.40390 35991 ft 426 kts 202°
2026-05-06 22:32 56.22296 8.36859 36011 ft 425 kts 202°
2026-05-06 22:33 56.16717 8.33340 36019 ft 425 kts 202°
2026-05-06 22:33 56.11140 8.29832 36018 ft 425 kts 202°
2026-05-06 22:34 56.05558 8.26332 36020 ft 425 kts 202°
2026-05-06 22:34 55.99973 8.22841 36002 ft 425 kts 202°
2026-05-06 22:35 55.94390 8.19362 36011 ft 425 kts 202°
2026-05-06 22:35 55.88789 8.15882 36016 ft 426 kts 202°
2026-05-06 22:36 55.83221 8.12433 36017 ft 427 kts 202°
2026-05-06 22:36 55.77620 8.08975 36022 ft 427 kts 202°
2026-05-06 22:37 55.71991 8.05510 36014 ft 428 kts 202°
2026-05-06 22:37 55.66356 8.02052 36008 ft 428 kts 202°
2026-05-06 22:38 55.60724 7.98606 36010 ft 429 kts 202°
2026-05-06 22:38 55.55082 7.95164 36012 ft 429 kts 202°
2026-05-06 22:39 55.50391 7.92311 35998 ft 428 kts 202°
2026-05-06 22:39 55.44752 7.88891 36010 ft 428 kts 202°
2026-05-06 22:40 55.39119 7.85484 36000 ft 428 kts 202°
2026-05-06 22:40 55.33478 7.82082 36004 ft 428 kts 202°
2026-05-06 22:41 55.25011 7.76996 35989 ft 429 kts 201°
2026-05-06 22:42 55.19376 7.73624 35993 ft 429 kts 201°
2026-05-06 22:42 55.13726 7.70252 35997 ft 429 kts 201°
2026-05-06 22:43 55.08068 7.66885 36002 ft 429 kts 202°
2026-05-06 22:43 55.02438 7.63544 35987 ft 430 kts 201°
2026-05-06 22:44 54.96756 7.60260 36000 ft 430 kts 200°
2026-05-06 22:44 54.91029 7.57172 35988 ft 431 kts 200°
2026-05-06 22:45 54.85296 7.54113 36003 ft 431 kts 200°
2026-05-06 22:45 54.79550 7.51032 35993 ft 432 kts 200°
2026-05-06 22:46 54.73810 7.47949 35993 ft 432 kts 200°
2026-05-06 22:46 54.68064 7.44868 35993 ft 432 kts 200°
2026-05-06 22:47 54.62312 7.41793 35988 ft 433 kts 200°
2026-05-06 22:47 54.56561 7.38726 35986 ft 433 kts 200°
2026-05-06 22:48 54.50799 7.35665 35973 ft 433 kts 199°
2026-05-06 22:48 54.45076 7.32632 35987 ft 434 kts 199°
2026-05-06 22:49 54.39304 7.29583 35987 ft 434 kts 199°
2026-05-06 22:49 54.33531 7.26541 35987 ft 434 kts 199°
2026-05-06 22:50 54.27746 7.23503 35971 ft 435 kts 199°
2026-05-06 22:50 54.21960 7.20473 35984 ft 435 kts 199°
2026-05-06 22:51 54.16163 7.17446 35987 ft 436 kts 199°
2026-05-06 22:51 54.10368 7.14429 35986 ft 436 kts 199°
2026-05-06 22:52 54.04552 7.11410 35986 ft 437 kts 199°
2026-05-06 22:52 53.98726 7.08394 35978 ft 437 kts 199°
2026-05-06 22:53 53.92940 7.05409 35982 ft 437 kts 199°
2026-05-06 22:53 53.87111 7.02409 35980 ft 438 kts 199°
2026-05-06 22:54 53.81278 6.99416 35853 ft 441 kts 199°
2026-05-06 22:54 53.78313 6.97897 35291 ft 445 kts 199°
2026-05-06 22:54 53.75355 6.96384 34685 ft 444 kts 199°
2026-05-06 22:54 53.72387 6.94870 34068 ft 444 kts 199°
2026-05-06 22:55 53.69435 6.93366 33355 ft 444 kts 199°
2026-05-06 22:55 53.66492 6.91870 32909 ft 438 kts 199°
2026-05-06 22:55 53.63588 6.90395 32424 ft 433 kts 199°
2026-05-06 22:55 53.60721 6.88942 31975 ft 428 kts 199°
2026-05-06 22:56 53.57887 6.87506 31530 ft 423 kts 199°
2026-05-06 22:56 53.55084 6.86087 31085 ft 419 kts 199°
2026-05-06 22:56 53.52339 6.84700 30640 ft 414 kts 199°
2026-05-06 22:56 53.49593 6.83314 30217 ft 410 kts 199°
2026-05-06 22:57 53.46879 6.81946 29758 ft 406 kts 199°
2026-05-06 22:57 53.44184 6.80589 29311 ft 401 kts 199°
2026-05-06 22:57 53.41529 6.79255 28864 ft 396 kts 199°
2026-05-06 22:57 53.38905 6.77937 28435 ft 391 kts 199°
2026-05-06 22:58 53.36308 6.76635 27998 ft 387 kts 199°
2026-05-06 22:58 53.33738 6.75347 27562 ft 384 kts 199°
2026-05-06 22:58 53.31188 6.74071 27149 ft 381 kts 199°
2026-05-06 22:58 53.28647 6.72800 26725 ft 385 kts 199°
2026-05-06 22:59 53.26059 6.71507 26288 ft 385 kts 199°
2026-05-06 22:59 53.23499 6.70231 25851 ft 382 kts 199°
2026-05-06 22:59 53.21003 6.68989 25438 ft 379 kts 199°
2026-05-06 22:59 53.18486 6.67739 25022 ft 376 kts 199°
2026-05-06 23:00 53.16044 6.66277 24605 ft 371 kts 207°
2026-05-06 23:00 53.13811 6.64187 24221 ft 365 kts 213°
2026-05-06 23:00 53.11665 6.61958 23829 ft 364 kts 214°
2026-05-06 23:00 53.09513 6.59715 23408 ft 363 kts 214°
2026-05-06 23:01 53.07378 6.57501 22943 ft 362 kts 214°
2026-05-06 23:01 53.05239 6.55296 22514 ft 361 kts 214°
2026-05-06 23:01 53.03113 6.53114 22107 ft 358 kts 213°
2026-05-06 23:01 53.00998 6.50953 21686 ft 355 kts 213°
2026-05-06 23:02 52.98900 6.48815 21294 ft 354 kts 213°
2026-05-06 23:02 52.96801 6.46679 20900 ft 352 kts 213°
2026-05-06 23:02 52.94714 6.44557 20505 ft 352 kts 213°
2026-05-06 23:02 52.92618 6.42429 20113 ft 354 kts 213°
2026-05-06 23:03 52.90515 6.40296 19713 ft 353 kts 213°
2026-05-06 23:03 52.88433 6.38187 19324 ft 351 kts 213°
2026-05-06 23:03 52.86357 6.36088 18929 ft 348 kts 213°
2026-05-06 23:03 52.84331 6.34009 18542 ft 345 kts 217°
2026-05-06 23:04 52.82654 6.31260 18125 ft 339 kts 236°
2026-05-06 23:04 52.81315 6.28061 17709 ft 336 kts 237°
2026-05-06 23:04 52.80005 6.24892 17323 ft 334 kts 237°
2026-05-06 23:04 52.78693 6.21724 16934 ft 333 kts 237°
2026-05-06 23:05 52.77380 6.18568 16561 ft 334 kts 237°
2026-05-06 23:05 52.76056 6.15402 16179 ft 335 kts 236°
2026-05-06 23:05 52.74730 6.12245 15792 ft 333 kts 236°
2026-05-06 23:05 52.73413 6.09120 15416 ft 331 kts 236°
2026-05-06 23:06 52.72101 6.06015 15043 ft 329 kts 236°
2026-05-06 23:06 52.70799 6.02938 14682 ft 326 kts 236°
2026-05-06 23:06 52.69504 5.99885 14320 ft 324 kts 236°
2026-05-06 23:06 52.68216 5.96851 13959 ft 321 kts 236°
2026-05-06 23:07 52.66937 5.93841 13572 ft 320 kts 236°
2026-05-06 23:07 52.65666 5.90856 13190 ft 317 kts 236°
2026-05-06 23:07 52.64402 5.87891 12830 ft 315 kts 237°
2026-05-06 23:07 52.63140 5.84933 12479 ft 315 kts 236°
2026-05-06 23:08 52.61880 5.81980 12114 ft 315 kts 236°
2026-05-06 23:08 52.60621 5.79033 11747 ft 315 kts 236°
2026-05-06 23:08 52.59362 5.76094 11389 ft 314 kts 236°
2026-05-06 23:08 52.58108 5.73168 11022 ft 312 kts 236°
2026-05-06 23:09 52.56861 5.70257 10665 ft 311 kts 236°
2026-05-06 23:09 52.55623 5.67373 10464 ft 306 kts 236°
2026-05-06 23:09 52.54404 5.64534 10334 ft 300 kts 236°
2026-05-06 23:09 52.53217 5.61776 10189 ft 291 kts 236°
2026-05-06 23:10 52.52063 5.59101 10076 ft 283 kts 236°
2026-05-06 23:10 52.50942 5.56508 9920 ft 277 kts 235°
2026-05-06 23:10 52.49809 5.54002 9675 ft 278 kts 234°
2026-05-06 23:10 52.48641 5.51471 9435 ft 279 kts 234°
2026-05-06 23:11 52.47458 5.48915 9188 ft 281 kts 233°
2026-05-06 23:11 52.46275 5.46361 8948 ft 281 kts 234°
2026-05-06 23:11 52.45097 5.43818 8695 ft 278 kts 234°
2026-05-06 23:11 52.43933 5.41305 8441 ft 276 kts 234°
2026-05-06 23:12 52.42775 5.38804 8217 ft 275 kts 234°
2026-05-06 23:12 52.41622 5.36313 7983 ft 275 kts 234°
2026-05-06 23:12 52.40464 5.33813 7734 ft 275 kts 234°
2026-05-06 23:12 52.39301 5.31304 7509 ft 277 kts 234°
2026-05-06 23:13 52.38133 5.28788 7275 ft 278 kts 234°
2026-05-06 23:13 52.36961 5.26264 7036 ft 278 kts 233°
2026-05-06 23:13 52.35791 5.23745 6794 ft 278 kts 234°
2026-05-06 23:13 52.34619 5.21225 6550 ft 278 kts 233°
2026-05-06 23:14 52.33451 5.18717 6305 ft 276 kts 233°
2026-05-06 23:14 52.32289 5.16226 6054 ft 275 kts 233°
2026-05-06 23:14 52.31131 5.13744 5806 ft 274 kts 233°
2026-05-06 23:14 52.29980 5.11278 5568 ft 271 kts 233°
2026-05-06 23:15 52.28842 5.08844 5328 ft 268 kts 233°
2026-05-06 23:15 52.27715 5.06432 5052 ft 267 kts 233°
2026-05-06 23:15 52.26598 5.04047 4833 ft 260 kts 233°
2026-05-06 23:15 52.25528 5.01764 4576 ft 253 kts 233°
2026-05-06 23:16 52.24474 4.99518 4323 ft 245 kts 233°
2026-05-06 23:16 52.23459 4.97357 4110 ft 235 kts 233°
2026-05-06 23:16 52.22485 4.95282 3913 ft 225 kts 233°
2026-05-06 23:16 52.21550 4.93295 3700 ft 216 kts 233°
2026-05-06 23:17 52.20656 4.91393 3511 ft 206 kts 233°
2026-05-06 23:17 52.19794 4.89562 3391 ft 205 kts 234°
2026-05-06 23:17 52.18920 4.87708 3218 ft 206 kts 233°
2026-05-06 23:17 52.18052 4.85867 3026 ft 202 kts 233°
2026-05-06 23:18 52.17209 4.84086 2862 ft 195 kts 233°
2026-05-06 23:18 52.16387 4.82347 2728 ft 194 kts 233°
2026-05-06 23:18 52.15747 4.80431 2544 ft 195 kts 263°
2026-05-06 23:18 52.15983 4.78337 2399 ft 188 kts 308°
2026-05-06 23:19 52.17001 4.77211 2309 ft 176 kts 349°
2026-05-06 23:19 52.18226 4.76937 2135 ft 177 kts
2026-05-06 23:19 52.19416 4.76897 1913 ft 164 kts
2026-05-06 23:19 52.20512 4.76957 1711 ft 150 kts
2026-05-06 23:20 52.21517 4.77038 1499 ft 142 kts
2026-05-06 23:20 52.22488 4.77124 1333 ft 138 kts
2026-05-06 23:20 52.23454 4.77214 1141 ft 140 kts
2026-05-06 23:20 52.24444 4.77309 947 ft 145 kts
2026-05-06 23:21 52.25444 4.77407 773 ft 142 kts
2026-05-06 23:21 52.26421 4.77494 564 ft 141 kts
2026-05-06 23:21 52.27388 4.77579 395 ft 141 kts
2026-05-06 23:21 52.28383 4.77669 193 ft 143 kts
2026-05-06 23:22 52.29381 4.77761 6 ft 138 kts
2026-05-06 23:22 52.30169 4.77836 -2 ft 77 kts
2026-05-06 23:22 52.30572 4.77873 -1 ft 47 kts
2026-05-06 23:22 52.30802 4.77888 -5 ft 23 kts 357°
2026-05-06 23:23 52.30919 4.77833 -4 ft 16 kts 335°
2026-05-06 23:23 52.31016 4.77756 -2 ft 15 kts 334°
2026-05-06 23:23 52.31109 4.77681 -2 ft 14 kts 331°
2026-05-06 23:23 52.31149 4.77559 -2 ft 13 kts 269°
2026-05-06 23:24 52.31083 4.77491 -2 ft 14 kts 182°
2026-05-06 23:24 52.30967 4.77480 -2 ft 20 kts 183°
2026-05-06 23:24 52.30828 4.77468 -2 ft 20 kts 183°
2026-05-06 23:24 52.30695 4.77455 -2 ft 16 kts 183°
2026-05-06 23:25 52.30618 4.77364 -2 ft 14 kts 239°
2026-05-06 23:25 52.30567 4.77229 -2 ft 14 kts 238°
2026-05-06 23:25 52.30518 4.77101 -2 ft 13 kts 238°
2026-05-06 23:25 52.30470 4.76977 -2 ft 13 kts 238°
2026-05-06 23:26 52.30424 4.76857 -2 ft 12 kts 237°
2026-05-06 23:26 52.30378 4.76739 -2 ft 12 kts 238°
2026-05-06 23:26 52.30335 4.76624 -2 ft 12 kts 241°
2026-05-06 23:26 52.30338 4.76542 -2 ft 12 kts 304°
2026-05-06 23:27 52.30425 4.76447 -2 ft 10 kts 328°
2026-05-06 23:27 52.30478 4.76392 -2 ft 8 kts 328°
2026-05-06 23:27 52.30496 4.76349 -2 ft 4 kts 261°
2026-05-06 23:27 52.30485 4.76311 -2 ft 4 kts 237°
2026-05-06 23:28 52.30478 4.76294 -2 ft 0 kts 237°